Hourly Weather Allanche

Today, 30 November, Monday

Time Temperature Precipitation Wind Pressure Humidity
00:00 -1°C° 0 mm 1 mps 669 mmHg 70%
01:00 -1°C° 0 mm 1 mps 669 mmHg 67%
02:00 -1°C° 0 mm 1 mps 669 mmHg 63%
03:00 -1°C° 0 mm 1 mps 669 mmHg 60%
04:00 -1°C° 0 mm 1 mps 669 mmHg 57%
05:00 -2°C° 0 mm 1 mps 669 mmHg 54%
06:00 -2°C° 0 mm 1 mps 669 mmHg 51%
07:00 0°C° 0 mm 1 mps 670 mmHg 47%
08:00 +1°C° 0 mm 1 mps 671 mmHg 43%
09:00 +2°C° 0 mm 1 mps 671 mmHg 39%
10:00 +4°C° 0 mm 1 mps 672 mmHg 36%
11:00 +6°C° 0 mm 1 mps 672 mmHg 33%
12:00 +7°C° 0 mm 1 mps 672 mmHg 30%
13:00 +7°C° 0 mm 1 mps 672 mmHg 36%
14:00 +6°C° 0 mm 1 mps 672 mmHg 42%
15:00 +5°C° 0 mm 1 mps 671 mmHg 48%
16:00 +3°C° 0 mm 1 mps 671 mmHg 48%
17:00 +1°C° 0 mm 1 mps 671 mmHg 49%
18:00 -1°C° 0 mm 1 mps 670 mmHg 50%
19:00 -1°C° 0 mm 1 mps 671 mmHg 46%
20:00 -1°C° 0 mm 1 mps 671 mmHg 41%
21:00 -1°C° 0 mm 1 mps 671 mmHg 37%
22:00 0°C° 0 mm 1 mps 671 mmHg 40%
23:00 0°C° 0 mm 1 mps 671 mmHg 43%

Tomorrow, 1 December, Tuesday

Time Temperature Precipitation Wind Pressure Humidity
00:00 +1°C° 0 mm 1 mps 671 mmHg 46%
01:00 +1°C° 0 mm 1 mps 671 mmHg 51%
02:00 +1°C° 0 mm 1 mps 671 mmHg 56%
03:00 +1°C° 0 mm 1 mps 671 mmHg 61%
04:00 +1°C° 0.2 mm 1 mps 670 mmHg 70%
05:00 +2°C° 0.2 mm 1 mps 670 mmHg 80%
06:00 +2°C° 0.2 mm 1 mps 670 mmHg 90%
07:00 +2°C° 0.4 mm 1 mps 670 mmHg 92%
08:00 +2°C° 0.4 mm 1 mps 669 mmHg 94%
09:00 +1°C° 0.4 mm 2 mps 669 mmHg 96%
10:00 +2°C° 0.4 mm 2 mps 669 mmHg 96%
11:00 +2°C° 0.4 mm 2 mps 669 mmHg 96%
12:00 +2°C° 0.4 mm 2 mps 668 mmHg 96%
13:00 +1°C° 0.2 mm 2 mps 668 mmHg 94%
14:00 0°C° 0.2 mm 3 mps 667 mmHg 91%
15:00 0°C° 0.2 mm 3 mps 667 mmHg 88%
16:00 -1°C° 0.1 mm 3 mps 667 mmHg 91%
17:00 -2°C° 0.1 mm 2 mps 666 mmHg 94%
18:00 -2°C° 0.1 mm 1 mps 666 mmHg 97%
19:00 -4°C° 0.2 mm 2 mps 666 mmHg 97%
20:00 -4°C° 0.2 mm 2 mps 666 mmHg 97%
21:00 -3°C° 0.2 mm 2 mps 666 mmHg 97%
22:00 -4°C° 0.2 mm 2 mps 666 mmHg 97%
23:00 -4°C° 0.2 mm 2 mps 665 mmHg 97%

Day after tomorrow, 2 December, Wednesday

Time Temperature Precipitation Wind Pressure Humidity
00:00 -2°C° 0.2 mm 1 mps 665 mmHg 96%
01:00 -2°C° 0.6 mm 1 mps 665 mmHg 97%
02:00 -4°C° 0.6 mm 2 mps 665 mmHg 97%
03:00 -3°C° 0.6 mm 2 mps 664 mmHg 97%
04:00 -4°C° 0.3 mm 2 mps 664 mmHg 97%
05:00 -4°C° 0.3 mm 2 mps 664 mmHg 96%
06:00 -5°C° 0.3 mm 3 mps 664 mmHg 96%
07:00 -5°C° 0.1 mm 3 mps 664 mmHg 94%
08:00 -4°C° 0.1 mm 3 mps 664 mmHg 93%
09:00 -4°C° 0.1 mm 3 mps 664 mmHg 91%
10:00 -4°C° 0 mm 3 mps 664 mmHg 90%
11:00 -4°C° 0 mm 3 mps 664 mmHg 89%
12:00 -2°C° 0 mm 3 mps 664 mmHg 88%
13:00 -2°C° 0 mm 3 mps 664 mmHg 89%
14:00 -2°C° 0 mm 3 mps 664 mmHg 90%
15:00 -2°C° 0 mm 3 mps 664 mmHg 91%
16:00 -2°C° 0.3 mm 2 mps 664 mmHg 93%
17:00 -2°C° 0.3 mm 2 mps 664 mmHg 95%
18:00 0°C° 0.3 mm 1 mps 664 mmHg 98%
19:00 0°C° 0.4 mm 1 mps 664 mmHg 98%
20:00 0°C° 0.4 mm 1 mps 664 mmHg 98%
21:00 0°C° 0.4 mm 1 mps 665 mmHg 98%
22:00 0°C° 0.2 mm 1 mps 664 mmHg 98%
23:00 0°C° 0.2 mm 1 mps 664 mmHg 98%

3 December, Thursday

Time Temperature Precipitation Wind Pressure Humidity
00:00 0°C° 0.2 mm 1 mps 664 mmHg 98%
01:00 0°C° 0.2 mm 1 mps 664 mmHg 98%
02:00 0°C° 0.2 mm 1 mps 664 mmHg 98%
03:00 0°C° 0.2 mm 1 mps 663 mmHg 98%
04:00 -1°C° 0 mm 1 mps 663 mmHg 98%
05:00 -1°C° 0 mm 1 mps 662 mmHg 97%
06:00 -1°C° 0 mm 1 mps 662 mmHg 97%
07:00 -1°C° 0 mm 1 mps 662 mmHg 95%
08:00 -1°C° 0 mm 1 mps 661 mmHg 94%
09:00 -1°C° 0 mm 1 mps 661 mmHg 93%
10:00 0°C° 0 mm 1 mps 661 mmHg 91%
11:00 +1°C° 0 mm 1 mps 660 mmHg 89%
12:00 +1°C° 0 mm 1 mps 659 mmHg 87%
13:00 +1°C° 0 mm 1 mps 659 mmHg 88%
14:00 +1°C° 0 mm 1 mps 658 mmHg 90%
15:00 0°C° 0 mm 1 mps 657 mmHg 92%
16:00 0°C° 0 mm 1 mps 656 mmHg 93%
17:00 -3°C° 0 mm 2 mps 655 mmHg 94%
18:00 -3°C° 0 mm 2 mps 655 mmHg 95%
19:00 -3°C° 0 mm 2 mps 654 mmHg 95%
20:00 -3°C° 0 mm 2 mps 653 mmHg 95%
21:00 -3°C° 0 mm 2 mps 653 mmHg 94%
22:00 -4°C° 0 mm 3 mps 652 mmHg 93%
23:00 -5°C° 0 mm 3 mps 651 mmHg 92%

4 December, Friday

Time Temperature Precipitation Wind Pressure Humidity
00:00 -5°C° 0 mm 3 mps 651 mmHg 91%
01:00 -4°C° 0.1 mm 4 mps 650 mmHg 90%
02:00 -4°C° 0.1 mm 4 mps 649 mmHg 90%
03:00 -5°C° 0.1 mm 5 mps 649 mmHg 90%
04:00 -4°C° 0.7 mm 5 mps 648 mmHg 92%
05:00 -4°C° 0.7 mm 5 mps 648 mmHg 94%
06:00 -4°C° 0.8 mm 5 mps 648 mmHg 97%
07:00 -4°C° 1.3 mm 5 mps 648 mmHg 96%
08:00 -4°C° 1.3 mm 5 mps 648 mmHg 95%
09:00 -4°C° 1.3 mm 5 mps 648 mmHg 95%
10:00 -4°C° 0.3 mm 5 mps 648 mmHg 93%
11:00 -4°C° 0.3 mm 5 mps 648 mmHg 92%
12:00 -4°C° 0.3 mm 5 mps 648 mmHg 91%
13:00 -4°C° 0.1 mm 5 mps 648 mmHg 91%
14:00 -3°C° 0.1 mm 4 mps 648 mmHg 91%
15:00 -3°C° 0.1 mm 4 mps 647 mmHg 92%
16:00 -4°C° 0.1 mm 4 mps 647 mmHg 93%
17:00 -4°C° 0.1 mm 4 mps 648 mmHg 94%
18:00 -5°C° 0.1 mm 4 mps 648 mmHg 95%
19:00 -5°C° 0.1 mm 4 mps 648 mmHg 95%
20:00 -5°C° 0.1 mm 4 mps 648 mmHg 96%
21:00 -5°C° 0.1 mm 3 mps 648 mmHg 96%
22:00 -5°C° 0.1 mm 3 mps 648 mmHg 97%
23:00 -5°C° 0.1 mm 4 mps 648 mmHg 97%

5 December, Saturday

Time Temperature Precipitation Wind Pressure Humidity
00:00 -5°C° 0.1 mm 4 mps 648 mmHg 97%
01:00 -5°C° 0.2 mm 4 mps 649 mmHg 97%
02:00 -5°C° 0.2 mm 4 mps 649 mmHg 96%
03:00 -4°C° 0.2 mm 4 mps 649 mmHg 96%
04:00 -5°C° 0.1 mm 4 mps 649 mmHg 96%
05:00 -5°C° 0.1 mm 4 mps 650 mmHg 96%
06:00 -5°C° 0.1 mm 4 mps 650 mmHg 96%
07:00 -6°C° 0 mm 5 mps 650 mmHg 94%
08:00 -5°C° 0 mm 5 mps 650 mmHg 93%
09:00 -5°C° 0 mm 5 mps 651 mmHg 91%
10:00 -5°C° 0.4 mm 6 mps 651 mmHg 92%
11:00 -4°C° 0.4 mm 7 mps 650 mmHg 93%
12:00 -4°C° 0.4 mm 7 mps 650 mmHg 94%
13:00 -4°C° 2 mm 7 mps 651 mmHg 95%
14:00 -4°C° 2 mm 7 mps 651 mmHg 96%
15:00 -3°C° 2 mm 7 mps 651 mmHg 97%
16:00 -3°C° 3.8 mm 6 mps 651 mmHg 97%
17:00 -4°C° 3.8 mm 5 mps 652 mmHg 97%
18:00 -3°C° 3.8 mm 4 mps 652 mmHg 98%
19:00 -4°C° 1.7 mm 5 mps 653 mmHg 98%
20:00 -4°C° 1.7 mm 5 mps 653 mmHg 98%
21:00 -2°C° 1.7 mm 5 mps 653 mmHg 98%
22:00 -2°C° 1 mm 5 mps 653 mmHg 98%
23:00 -4°C° 1 mm 5 mps 654 mmHg 98%
Show more